Location: Endfield
(51.6667°N, 0.0667°W)
Time: 04:57:14
(UTC+00:00)

Cosmos 2026 Rocket - Pass Details

Date: 19 May 2024
Orbit: 937 x 1001 km, 82.9° (Epoch: 19 June)

Event Time Altitude Azimuth Distance (km) Brightness Sun altitude
Exits shadow 23:12:22 26° 188° (S) 1,845 4.9 -17.6°
Maximum altitude 23:16:11 90° 103° (ESE) 996 4.0 -17.7°
Drops below altitude 10° 23:22:30 10° 10° (N) 2,738 7.5 -17.9°
Sets 23:25:00 0° 11° (N) 3,681 8.4 -18.0°
